• En España
  • Lista de países
  • Para 7 días
  • Temperatura del agua
  • Mapa Satelital
  • El tiempo en el mapa
  • Informadores
  • user-avatar
    Iniciar sesión

    Tiempo cada hora Maloe Loshakovo

    Hoy, 16 Julio, Lunes

    Tiempo Temperatura Precipitaciones Viento Presión Humedad
    00:00 +19°C° 0 mm 1 mps 746 mmHg 91%
    01:00 +19°C° 0 mm 1 mps 746 mmHg 92%
    02:00 +18°C° 0 mm 1 mps 746 mmHg 94%
    03:00 +19°C° 0 mm 1 mps 746 mmHg 94%
    04:00 +19°C° 0 mm 1 mps 746 mmHg 94%
    05:00 +19°C° 0 mm 1 mps 746 mmHg 93%
    06:00 +20°C° 0 mm 2 mps 746 mmHg 87%
    07:00 +23°C° 0 mm 2 mps 746 mmHg 80%
    08:00 +25°C° 0 mm 2 mps 747 mmHg 72%
    09:00 +26°C° 0,4 mm 3 mps 746 mmHg 67%
    10:00 +27°C° 0,4 mm 3 mps 746 mmHg 62%
    11:00 +28°C° 0,4 mm 4 mps 746 mmHg 57%
    12:00 +29°C° 0 mm 4 mps 746 mmHg 49%
    13:00 +30°C° 0 mm 4 mps 746 mmHg 47%
    14:00 +30°C° 0 mm 4 mps 746 mmHg 44%
    15:00 +30°C° 0 mm 3 mps 745 mmHg 48%
    16:00 +29°C° 0 mm 3 mps 745 mmHg 52%
    17:00 +29°C° 0 mm 2 mps 745 mmHg 56%
    18:00 +27°C° 0 mm 2 mps 745 mmHg 63%
    19:00 +25°C° 0 mm 2 mps 745 mmHg 70%
    20:00 +24°C° 0 mm 2 mps 745 mmHg 77%
    21:00 +23°C° 0 mm 2 mps 746 mmHg 79%
    22:00 +21°C° 0 mm 2 mps 746 mmHg 81%
    23:00 +20°C° 0 mm 2 mps 746 mmHg 82%

    Mañana, 17 Julio, Martes

    Tiempo Temperatura Precipitaciones Viento Presión Humedad
    00:00 +19°C° 0 mm 2 mps 746 mmHg 84%
    01:00 +19°C° 0 mm 2 mps 746 mmHg 85%
    02:00 +18°C° 0 mm 2 mps 746 mmHg 87%
    03:00 +19°C° 0 mm 2 mps 746 mmHg 85%
    04:00 +19°C° 0 mm 3 mps 746 mmHg 84%
    05:00 +20°C° 0 mm 3 mps 746 mmHg 83%
    06:00 +21°C° 0 mm 3 mps 746 mmHg 76%
    07:00 +23°C° 0 mm 4 mps 746 mmHg 69%
    08:00 +26°C° 0 mm 4 mps 746 mmHg 62%
    09:00 +27°C° 0 mm 5 mps 746 mmHg 56%
    10:00 +29°C° 0 mm 5 mps 746 mmHg 51%
    11:00 +30°C° 0 mm 5 mps 745 mmHg 45%
    12:00 +30°C° 0 mm 5 mps 745 mmHg 43%
    13:00 +30°C° 0 mm 5 mps 745 mmHg 42%
    14:00 +32°C° 0 mm 5 mps 745 mmHg 40%
    15:00 +30°C° 0 mm 5 mps 744 mmHg 43%
    16:00 +30°C° 0 mm 4 mps 744 mmHg 47%
    17:00 +29°C° 0 mm 3 mps 744 mmHg 50%
    18:00 +28°C° 0 mm 3 mps 744 mmHg 56%
    19:00 +26°C° 0 mm 3 mps 744 mmHg 62%
    20:00 +24°C° 0 mm 3 mps 744 mmHg 68%
    21:00 +22°C° 0 mm 3 mps 744 mmHg 67%
    22:00 +22°C° 0 mm 3 mps 744 mmHg 67%
    23:00 +21°C° 0 mm 3 mps 744 mmHg 66%

    Pasado mañana, 18 Julio, Miércoles

    Tiempo Temperatura Precipitaciones Viento Presión Humedad
    00:00 +21°C° 0 mm 3 mps 744 mmHg 67%
    01:00 +21°C° 0 mm 3 mps 744 mmHg 68%
    02:00 +20°C° 0 mm 4 mps 744 mmHg 70%
    03:00 +20°C° 0,2 mm 4 mps 744 mmHg 72%
    04:00 +20°C° 0,2 mm 4 mps 744 mmHg 75%
    05:00 +20°C° 0,2 mm 4 mps 744 mmHg 77%
    06:00 +21°C° 0,3 mm 5 mps 744 mmHg 75%
    07:00 +22°C° 0,3 mm 5 mps 744 mmHg 73%
    08:00 +23°C° 0,3 mm 5 mps 744 mmHg 70%
    09:00 +25°C° 0,1 mm 5 mps 744 mmHg 65%
    10:00 +26°C° 0,1 mm 5 mps 743 mmHg 59%
    11:00 +28°C° 0,1 mm 5 mps 743 mmHg 53%
    12:00 +27°C° 0,5 mm 5 mps 743 mmHg 57%
    13:00 +27°C° 0,5 mm 5 mps 743 mmHg 61%
    14:00 +27°C° 0,5 mm 5 mps 743 mmHg 65%
    15:00 +27°C° 0,5 mm 4 mps 743 mmHg 68%
    16:00 +26°C° 0,5 mm 4 mps 743 mmHg 70%
    17:00 +26°C° 0,5 mm 3 mps 743 mmHg 72%
    18:00 +24°C° 0,3 mm 3 mps 743 mmHg 78%
    19:00 +22°C° 0,3 mm 3 mps 743 mmHg 83%
    20:00 +20°C° 0,3 mm 3 mps 743 mmHg 89%
    21:00 +20°C° 0,1 mm 3 mps 743 mmHg 90%
    22:00 +20°C° 0,1 mm 3 mps 743 mmHg 92%
    23:00 +19°C° 0,1 mm 3 mps 743 mmHg 93%

    19 Julio, Jueves

    Tiempo Temperatura Precipitaciones Viento Presión Humedad
    00:00 +19°C° 0 mm 3 mps 743 mmHg 93%
    01:00 +19°C° 0 mm 3 mps 743 mmHg 93%
    02:00 +19°C° 0 mm 3 mps 743 mmHg 93%
    03:00 +19°C° 0 mm 4 mps 743 mmHg 92%
    04:00 +19°C° 0 mm 4 mps 743 mmHg 91%
    05:00 +19°C° 0 mm 4 mps 743 mmHg 90%
    06:00 +20°C° 0 mm 4 mps 743 mmHg 85%
    07:00 +20°C° 0 mm 4 mps 743 mmHg 81%
    08:00 +21°C° 0 mm 4 mps 743 mmHg 76%
    09:00 +22°C° 0 mm 4 mps 743 mmHg 73%
    10:00 +22°C° 0 mm 4 mps 743 mmHg 71%
    11:00 +23°C° 0 mm 5 mps 743 mmHg 68%
    12:00 +25°C° 0,2 mm 4 mps 742 mmHg 68%
    13:00 +25°C° 0,2 mm 4 mps 742 mmHg 67%
    14:00 +26°C° 0,2 mm 4 mps 742 mmHg 66%
    15:00 +25°C° 0,3 mm 4 mps 742 mmHg 70%
    16:00 +25°C° 0,3 mm 3 mps 742 mmHg 74%
    17:00 +25°C° 0,3 mm 3 mps 742 mmHg 79%
    18:00 +22°C° 0,4 mm 3 mps 742 mmHg 83%
    19:00 +21°C° 0,4 mm 3 mps 742 mmHg 88%
    20:00 +20°C° 0,4 mm 3 mps 742 mmHg 93%
    21:00 +20°C° 0,2 mm 3 mps 742 mmHg 94%
    22:00 +19°C° 0,2 mm 3 mps 742 mmHg 95%
    23:00 +19°C° 0,2 mm 3 mps 742 mmHg 96%

    20 Julio, Viernes

    Tiempo Temperatura Precipitaciones Viento Presión Humedad
    00:00 +19°C° 0 mm 3 mps 742 mmHg 97%
    01:00 +19°C° 0 mm 3 mps 742 mmHg 97%
    02:00 +19°C° 0 mm 3 mps 741 mmHg 97%
    03:00 +19°C° 0,1 mm 3 mps 741 mmHg 97%
    04:00 +19°C° 0,1 mm 3 mps 741 mmHg 97%
    05:00 +19°C° 0,1 mm 3 mps 741 mmHg 97%
    06:00 +19°C° 0,1 mm 3 mps 741 mmHg 97%
    07:00 +19°C° 0,1 mm 3 mps 741 mmHg 97%
    08:00 +19°C° 0,1 mm 3 mps 741 mmHg 97%
    09:00 +20°C° 0,1 mm 3 mps 741 mmHg 96%
    10:00 +20°C° 0,1 mm 3 mps 742 mmHg 95%
    11:00 +21°C° 0,1 mm 3 mps 742 mmHg 95%
    12:00 +22°C° 0,4 mm 3 mps 741 mmHg 92%
    13:00 +22°C° 0,4 mm 3 mps 741 mmHg 90%
    14:00 +24°C° 0,4 mm 3 mps 741 mmHg 88%
    15:00 +24°C° 0,5 mm 3 mps 741 mmHg 89%
    16:00 +25°C° 0,5 mm 3 mps 741 mmHg 89%
    17:00 +25°C° 0,5 mm 3 mps 741 mmHg 90%
    18:00 +24°C° 0,2 mm 3 mps 741 mmHg 92%
    19:00 +23°C° 0,2 mm 2 mps 741 mmHg 94%
    20:00 +23°C° 0,2 mm 2 mps 741 mmHg 97%
    21:00 +21°C° 0,5 mm 2 mps 741 mmHg 97%
    22:00 +21°C° 0,5 mm 2 mps 741 mmHg 97%
    23:00 +20°C° 0,5 mm 2 mps 741 mmHg 98%

    21 Julio, Sábado

    Tiempo Temperatura Precipitaciones Viento Presión Humedad
    00:00 +20°C° 0 mm 2 mps 741 mmHg 98%
    01:00 +20°C° 0 mm 2 mps 741 mmHg 98%
    02:00 +19°C° 0 mm 2 mps 741 mmHg 98%
    03:00 +20°C° 0 mm 2 mps 741 mmHg 98%
    04:00 +20°C° 0 mm 2 mps 741 mmHg 98%
    05:00 +20°C° 0 mm 2 mps 741 mmHg 98%
    06:00 +21°C° 0,1 mm 2 mps 741 mmHg 94%
    07:00 +24°C° 0,1 mm 3 mps 741 mmHg 90%
    08:00 +25°C° 0,1 mm 3 mps 741 mmHg 86%
    09:00 +26°C° 0,3 mm 3 mps 741 mmHg 80%
    10:00 +27°C° 0,3 mm 3 mps 741 mmHg 73%
    11:00 +29°C° 0,3 mm 3 mps 741 mmHg 67%
    12:00 +29°C° 0,5 mm 3 mps 741 mmHg 67%
    13:00 +29°C° 0,5 mm 3 mps 741 mmHg 67%
    14:00 +30°C° 0,5 mm 3 mps 741 mmHg 66%
    15:00 +29°C° 0,5 mm 3 mps 741 mmHg 69%
    16:00 +29°C° 0,5 mm 3 mps 741 mmHg 72%
    17:00 +28°C° 0,5 mm 3 mps 740 mmHg 74%
    18:00 +27°C° 0,1 mm 3 mps 740 mmHg 80%
    19:00 +25°C° 0,1 mm 2 mps 740 mmHg 86%
    20:00 +24°C° 0,1 mm 2 mps 740 mmHg 91%
    21:00 +23°C° 0,1 mm 2 mps 740 mmHg 93%
    22:00 +23°C° 0,1 mm 2 mps 741 mmHg 95%
    23:00 +21°C° 0,1 mm 2 mps 741 mmHg 97%
    Mostrar más